GFSSE_sfc_avort_021.txt.gz
Vorticity
nan nan nan nan nan nan nan nan nan nan nan nan nan nan nan nan nan nan nan nan nan nan nan nan nan nan nan nan nan nan nan nan nan nan nan nan nan nan nan nan nan nan nan
nan 12 7 4 4 5 5 5 5 5 5 5 5 5 5 5 5 5 5 5 4 5 4 5 5 5 5 6 5 5 5 4 3 4 4 4 4 5 9 13 7 7 nan
nan 7 5 4 4 6 5 5 4 4 5 5 5 5 5 5 5 4 5 4 5 5 4 5 5 5 5 5 6 6 6 5 4 2 2 1 6 7 7 10 7 6 nan
nan 6 7 7 5 5 4 5 4 4 4 4 5 5 5 5 5 5 5 4 5 4 4 5 5 5 5 5 5 5 6 6 10 8 6 6 7 7 8 6 5 6 nan
nan 7 9 7 5 5 4 4 4 4 4 3 4 5 5 5 5 5 4 4 4 4 4 5 6 6 5 5 6 5 5 5 7 12 14 10 7 8 6 5 6 5 nan
nan 7 8 7 5 4 4 5 4 4 4 4 5 4 5 5 5 4 4 5 4 4 4 6 6 6 6 5 5 5 5 7 7 11 9 9 8 10 7 6 5 6 nan
nan 6 7 7 6 5 5 4 4 4 3 4 5 5 5 5 4 3 4 4 4 4 4 5 6 6 6 5 4 5 5 9 11 6 6 6 9 9 7 6 6 6 nan
nan 6 8 6 5 6 5 5 5 5 3 5 5 4 4 4 3 3 3 3 3 4 5 6 6 6 5 5 5 5 5 17 12 4 5 7 10 6 5 5 6 6 nan
nan 5 5 6 8 5 5 6 5 5 5 5 4 4 3 4 3 3 3 4 4 4 4 6 5 5 5 5 5 6 12 14 4 5 6 12 10 7 5 5 4 6 nan
nan 5 5 5 4 5 9 8 5 5 5 4 3 3 3 5 5 5 4 2 4 4 3 5 6 5 6 5 6 14 6 -1 4 9 6 8 9 7 6 5 5 5 nan
nan 6 6 6 5 6 7 8 7 5 4 4 5 5 4 7 9 8 8 8 4 4 3 5 5 5 6 8 6 2 10 9 3 6 11 11 10 6 5 5 6 5 nan
nan 6 5 6 6 5 5 5 5 5 5 7 7 7 6 8 9 11 11 9 7 7 6 5 7 6 9 13 13 2 12 8 5 5 10 11 8 8 6 6 5 6 nan
nan 9 9 7 7 4 4 4 5 7 7 8 8 7 7 6 7 9 8 7 10 8 8 7 8 9 9 8 8 10 12 10 6 7 12 12 9 7 6 5 6 5 nan
nan 11 9 6 5 5 6 6 6 6 6 8 10 7 7 7 8 6 8 7 6 9 9 9 8 7 8 7 6 7 10 11 8 8 15 13 7 7 7 5 6 6 nan
nan 7 6 5 5 8 5 6 7 8 8 8 10 7 7 8 9 6 8 9 7 8 9 9 8 7 7 6 6 6 6 8 11 9 12 13 7 8 9 7 7 7 nan
nan 5 6 4 6 6 5 8 7 9 11 9 8 9 7 7 7 7 5 7 10 10 8 7 6 7 7 7 7 8 7 7 10 11 8 11 12 9 10 8 7 8 nan
nan 9 6 5 6 5 6 6 7 8 7 10 11 10 6 6 7 6 6 7 9 10 7 6 6 7 8 9 9 10 9 11 9 7 8 9 11 12 9 8 8 9 nan
nan 10 5 6 4 5 7 6 6 6 7 7 9 10 10 7 7 5 5 7 9 9 8 6 6 8 8 9 9 10 9 12 10 6 6 11 11 10 12 9 8 8 nan
nan 10 6 7 5 4 5 7 8 7 6 7 8 9 8 8 6 7 6 8 10 6 7 7 8 8 7 6 8 8 12 9 9 10 12 8 11 11 12 13 9 8 nan
nan 10 4 8 9 4 4 6 7 8 9 9 7 8 7 9 7 5 7 10 8 6 7 7 8 8 8 7 8 7 9 8 9 9 11 8 9 13 10 11 11 12 nan
nan 7 5 8 11 4 6 7 7 8 8 9 10 11 9 9 8 7 7 7 6 8 8 8 7 7 8 10 9 9 11 9 7 8 7 7 10 10 10 9 10 10 nan
nan 7 5 5 10 8 5 6 8 9 8 8 11 11 9 7 8 9 7 7 8 8 10 8 7 8 9 9 9 9 8 9 9 9 7 6 9 9 10 9 8 8 nan
nan 7 7 5 6 9 7 5 7 7 8 9 10 11 10 8 7 8 7 8 10 10 9 7 7 7 8 10 10 7 8 10 8 8 8 8 6 7 7 7 8 8 nan
nan 8 8 7 5 6 7 6 6 6 6 7 9 11 11 9 8 7 8 8 8 9 10 9 8 8 7 8 9 9 10 9 7 7 8 9 8 7 5 7 7 9 nan
nan 8 8 8 5 6 6 6 5 7 7 7 10 11 10 10 10 8 8 9 7 8 9 9 7 8 8 10 8 8 8 9 9 10 8 6 9 9 9 10 7 7 nan
nan nan nan nan nan nan nan nan nan nan nan nan nan nan nan nan nan nan nan nan nan nan nan nan nan nan nan nan nan nan nan nan nan nan nan nan nan nan nan nan nan nan nan

GFSSE_sfc_avort_024.txt.gz
Vorticity
nan nan nan nan nan nan nan nan nan nan nan nan nan nan nan nan nan nan nan nan nan nan nan nan nan nan nan nan nan nan nan nan nan nan nan nan nan nan nan nan nan nan nan
nan 12 8 6 6 5 5 4 5 5 5 4 5 5 5 5 4 4 4 4 4 5 5 4 5 5 6 6 6 5 4 3 3 4 6 5 4 10 10 4 5 7 nan
nan 8 7 7 6 5 4 4 5 6 5 5 5 5 5 4 4 4 5 4 4 4 4 5 5 5 5 5 6 6 5 3 4 4 3 3 6 10 10 6 5 6 nan
nan 5 7 9 6 4 4 4 5 5 4 5 5 5 5 4 5 4 4 4 4 4 4 5 5 5 6 5 5 6 8 8 7 4 1 6 8 8 7 5 5 6 nan
nan 8 10 7 6 5 4 4 5 4 4 4 5 5 5 4 4 4 5 5 4 4 5 5 6 5 5 5 5 7 10 12 14 11 5 5 8 10 6 6 5 5 nan
nan 8 10 6 4 4 4 4 4 4 4 4 4 4 4 5 4 4 4 4 3 4 5 6 6 6 5 6 6 7 8 10 8 8 10 8 7 7 7 7 5 4 nan
nan 7 9 7 4 5 5 4 4 4 4 4 4 5 4 4 4 4 5 4 3 4 5 6 6 6 6 5 6 10 15 8 2 5 7 7 9 9 6 5 6 5 nan
nan 6 9 7 4 5 5 4 4 3 4 5 4 4 4 4 3 3 3 4 4 4 5 7 6 6 6 7 8 13 11 5 4 5 5 7 10 9 6 5 5 5 nan
nan 5 7 8 8 5 3 5 4 4 4 4 4 3 4 3 3 3 3 3 4 5 5 7 6 6 7 7 12 11 6 -1 1 6 6 8 10 7 5 6 6 5 nan
nan 5 5 6 7 6 10 8 4 5 4 4 4 3 4 5 3 3 3 3 4 5 4 6 6 6 6 8 11 9 1 -0 4 6 7 9 11 8 6 5 5 6 nan
nan 5 5 6 6 7 9 9 9 6 5 5 5 4 3 4 6 7 6 5 5 6 5 5 6 5 8 11 4 5 3 1 5 6 10 11 10 6 5 5 5 6 nan
nan 5 5 5 6 6 5 6 7 6 6 7 7 7 7 7 8 9 9 10 8 6 6 6 6 6 8 10 9 2 6 7 6 7 8 10 12 7 6 6 5 6 nan
nan 6 6 5 6 5 4 5 6 7 7 8 8 8 6 6 8 8 8 10 10 8 7 7 8 7 8 7 9 12 10 6 6 9 10 10 8 8 7 6 6 5 nan
nan 7 6 6 5 3 5 7 6 6 7 7 8 9 6 7 8 7 7 7 7 9 8 7 7 7 8 7 8 12 10 6 5 8 12 9 5 7 9 8 6 6 nan
nan 7 6 5 6 5 4 5 7 8 7 7 8 8 7 7 8 7 8 8 7 8 9 9 7 8 6 7 7 8 8 9 6 7 13 12 7 9 8 9 9 7 nan
nan 7 6 5 6 5 5 6 6 7 7 7 7 9 8 7 8 8 8 7 8 9 10 8 8 7 7 7 7 9 10 10 10 6 8 13 13 8 7 10 11 9 nan
nan 9 7 5 5 7 6 5 7 8 9 8 10 10 8 7 7 7 6 7 10 11 8 6 7 7 8 9 8 8 11 10 12 8 7 8 11 14 11 8 8 9 nan
nan 8 6 7 7 5 7 5 7 9 10 10 10 9 8 7 7 6 7 7 8 9 7 7 6 7 7 8 8 9 10 13 9 8 10 9 8 10 13 10 9 8 nan
nan 7 6 7 7 4 6 7 8 8 6 8 9 10 9 8 7 7 6 7 8 7 6 7 8 7 6 7 7 8 8 13 10 8 13 11 9 8 9 11 13 10 nan
nan 8 6 7 7 5 5 6 7 7 7 9 9 8 9 8 7 6 7 9 8 7 6 8 8 8 8 7 8 7 10 10 11 11 7 8 12 13 10 9 9 12 nan
nan 8 7 5 5 3 5 7 8 8 8 9 10 9 8 8 8 7 7 8 8 8 8 7 7 7 7 8 9 9 10 8 10 10 6 9 10 10 10 9 8 9 nan
nan 7 7 6 5 4 5 6 7 9 9 9 10 11 9 8 8 9 8 7 7 8 9 7 7 8 9 9 8 7 7 7 8 7 9 10 9 8 8 8 8 8 nan
nan 9 7 8 6 5 4 3 5 7 9 9 9 11 12 10 8 8 8 9 8 8 8 8 8 7 7 8 10 8 8 10 6 7 8 9 7 6 8 8 8 7 nan
nan 8 7 9 9 7 6 5 4 4 5 6 8 9 10 11 9 8 8 9 8 8 9 8 7 8 8 8 6 7 10 12 7 7 7 7 9 10 6 6 9 8 nan
nan 8 8 7 8 10 8 5 4 5 6 7 9 10 10 9 9 8 8 9 7 9 10 8 7 7 7 9 9 7 7 7 9 11 8 7 10 8 9 9 8 8 nan
nan nan nan nan nan nan nan nan nan nan nan nan nan nan nan nan nan nan nan nan nan nan nan nan nan nan nan nan nan nan nan nan nan nan nan nan nan nan nan nan nan nan nan

GFSSE_sfc_avort_030.txt.gz
Vorticity
nan nan nan nan nan nan nan nan nan nan nan nan nan nan nan nan nan nan nan nan nan nan nan nan nan nan nan nan nan nan nan nan nan nan nan nan nan nan nan nan nan nan nan
nan 8 8 5 5 6 5 5 5 5 5 5 6 5 5 5 4 4 4 4 5 5 5 6 6 6 6 6 4 4 4 5 6 6 6 4 4 4 6 5 6 6 nan
nan 7 7 8 5 5 5 5 5 6 5 5 5 5 4 4 4 4 4 4 4 5 6 5 5 6 7 7 5 4 4 4 6 7 3 4 9 7 5 7 7 7 nan
nan 7 9 9 5 4 5 5 5 5 5 5 5 4 4 4 4 4 4 4 4 5 5 6 6 6 6 7 8 6 4 3 4 5 2 8 8 6 6 6 6 7 nan
nan 9 13 8 5 5 4 4 6 5 5 5 4 4 4 4 4 4 4 4 5 6 6 7 6 6 6 6 8 10 10 7 4 2 5 7 8 9 5 5 7 7 nan
nan 10 12 6 4 4 5 5 5 5 5 4 4 4 4 4 4 4 4 4 5 5 7 7 6 6 6 7 9 8 8 14 9 2 6 7 9 8 6 6 6 6 nan
nan 9 9 7 4 4 4 4 4 4 5 5 4 4 4 4 5 5 4 4 4 6 7 7 6 6 5 7 10 9 7 8 8 6 6 5 8 8 5 4 5 6 nan
nan 7 11 8 4 4 4 4 3 4 4 4 5 4 3 4 4 4 4 4 5 7 7 6 5 6 7 7 8 10 7 4 7 6 6 6 9 8 6 5 5 4 nan
nan 6 7 8 9 5 3 3 4 4 4 4 4 4 3 3 4 4 4 4 5 6 6 6 6 6 7 7 7 8 9 6 4 7 6 8 9 8 6 5 5 4 nan
nan 6 7 7 6 6 10 7 3 3 4 4 4 4 5 5 4 4 3 4 5 6 6 5 6 6 6 6 7 8 5 4 6 6 6 6 10 9 6 6 4 6 nan
nan 6 6 7 7 7 7 9 9 5 5 5 5 4 4 5 6 6 6 6 8 6 6 6 6 7 8 7 8 7 4 4 7 6 8 8 8 6 6 6 5 5 nan
nan 4 5 6 6 7 6 8 8 7 7 7 6 6 6 6 7 7 7 9 10 8 8 6 6 8 8 9 7 7 8 8 7 7 9 10 7 6 6 5 7 6 nan
nan 5 6 5 6 6 6 6 7 8 7 7 7 6 6 7 6 8 9 8 7 8 7 6 7 9 8 7 9 10 8 7 6 8 10 11 8 7 6 5 6 5 nan
nan 6 5 6 6 4 6 8 7 7 7 7 8 6 7 6 7 8 7 6 7 8 7 8 7 7 7 7 9 10 9 6 5 8 9 10 10 7 9 7 5 6 nan
nan 7 6 6 6 6 4 6 7 7 7 7 7 7 7 7 7 7 7 7 7 7 8 8 8 8 6 8 9 8 7 7 7 6 10 11 7 7 8 10 8 6 nan
nan 7 6 6 6 7 5 5 6 7 7 7 7 8 7 6 7 7 7 7 8 8 9 9 8 7 8 8 8 9 9 7 8 7 7 9 10 9 8 10 10 8 nan
nan 8 7 6 6 6 6 5 7 8 7 7 8 9 8 7 7 7 7 7 8 9 9 8 6 7 8 9 8 6 9 10 9 9 7 7 8 11 12 10 10 10 nan
nan 8 7 8 7 5 6 6 7 8 7 7 9 10 9 7 7 7 7 7 9 10 8 7 7 8 8 7 7 8 9 11 10 10 7 7 7 7 11 12 10 10 nan
nan 7 8 8 8 6 5 7 8 8 7 8 8 9 9 8 8 7 7 9 8 8 8 7 8 8 7 8 8 8 9 12 12 9 9 8 8 8 7 11 13 10 nan
nan 7 7 8 8 7 6 6 7 7 8 9 9 9 9 10 8 7 8 9 7 7 7 7 8 7 8 8 8 8 8 9 11 10 11 10 11 10 8 9 9 11 nan
nan 8 8 6 6 5 6 7 8 8 8 9 11 10 9 9 9 7 7 8 8 8 8 7 7 7 7 8 8 7 7 8 9 9 10 9 11 11 10 8 8 9 nan
nan 6 7 6 5 4 4 6 9 11 9 10 9 10 9 8 8 7 7 8 8 8 8 8 7 7 7 9 8 7 7 7 6 7 9 9 8 9 8 9 9 8 nan
nan 8 7 8 5 6 4 2 4 7 8 8 9 10 10 10 8 8 7 8 7 7 8 8 8 8 7 7 9 9 9 8 6 6 8 9 8 8 7 8 7 7 nan
nan 7 7 8 7 8 7 5 5 3 5 6 8 10 10 9 9 9 8 8 7 7 8 8 8 8 9 8 6 7 10 11 8 7 7 7 8 8 6 7 8 7 nan
nan 9 9 8 7 8 8 5 5 5 6 8 11 10 8 10 10 9 9 8 7 7 9 9 8 7 7 9 8 7 7 8 9 10 8 7 8 9 8 8 7 8 nan
nan nan nan nan nan nan nan nan nan nan nan nan nan nan nan nan nan nan nan nan nan nan nan nan nan nan nan nan nan nan nan nan nan nan nan nan nan nan nan nan nan nan nan

GFSSE_sfc_avort_033.txt.gz
Vorticity
nan nan nan nan nan nan nan nan nan nan nan nan nan nan nan nan nan nan nan nan nan nan nan nan nan nan nan nan nan nan nan nan nan nan nan nan nan nan nan nan nan nan nan
nan 8 9 6 7 6 5 5 4 5 6 5 5 5 5 4 4 4 5 5 5 5 6 7 7 6 6 5 4 4 4 6 6 7 7 3 5 5 6 5 7 7 nan
nan 8 7 7 7 6 4 4 5 6 5 5 5 5 3 4 4 4 4 4 6 7 7 6 6 6 7 6 4 4 5 5 6 7 5 6 7 7 6 6 8 4 nan
nan 6 7 8 6 5 4 5 6 5 5 5 4 4 4 4 4 4 4 4 5 5 7 6 6 6 7 7 7 5 4 5 7 5 6 8 5 7 8 7 7 7 nan
nan 5 8 7 6 5 5 5 6 5 5 4 4 4 4 4 4 4 4 5 6 6 6 6 6 6 5 6 9 10 8 5 5 5 6 7 7 7 6 8 8 6 nan
nan 5 6 5 5 4 5 5 5 5 5 4 4 4 4 5 5 4 4 4 7 7 6 6 6 6 7 6 7 9 12 13 3 4 8 7 9 8 6 6 7 7 nan
nan 6 5 5 5 5 5 5 5 5 5 5 4 4 5 5 5 4 4 6 6 7 7 6 5 5 6 7 9 9 10 11 6 5 7 7 8 6 7 7 7 8 nan
nan 6 5 5 4 5 5 4 4 5 4 5 4 4 4 4 5 5 5 5 6 7 6 6 6 6 6 7 11 10 6 8 7 6 6 4 7 8 5 5 6 7 nan
nan 5 5 5 4 4 4 4 4 4 4 5 5 4 4 4 4 4 4 5 6 6 6 6 5 5 7 6 9 9 7 8 6 7 6 6 6 9 6 5 4 5 nan
nan 5 5 5 5 4 5 5 4 4 5 4 4 5 5 4 5 5 5 4 6 6 5 6 5 5 6 6 8 7 6 6 6 6 5 9 8 8 5 5 5 5 nan
nan 6 6 5 4 5 5 6 5 4 4 5 5 5 4 4 5 4 5 8 10 6 5 6 6 6 6 9 8 5 2 6 7 6 7 5 7 7 6 5 5 5 nan
nan 4 4 6 5 4 4 6 5 5 5 6 5 4 4 5 5 6 6 10 10 8 6 6 7 8 7 9 10 5 5 7 7 7 10 6 7 6 6 7 7 4 nan
nan 4 6 5 6 4 4 5 5 6 6 7 6 5 5 6 6 8 9 8 6 8 7 7 5 7 8 7 9 10 10 7 7 8 10 9 7 8 6 7 6 5 nan
nan 5 5 5 5 4 4 6 5 6 6 6 7 6 6 6 6 7 7 7 7 7 7 7 8 8 9 8 8 9 8 8 6 8 8 10 9 8 10 7 5 5 nan
nan 6 6 5 5 6 4 5 6 6 6 6 7 6 6 6 6 7 7 6 6 6 9 10 9 8 7 7 6 8 7 7 7 6 8 11 8 7 10 11 8 6 nan
nan 7 6 6 5 5 5 5 5 7 7 6 7 7 6 5 6 6 7 7 7 7 7 8 9 9 8 6 9 8 8 8 7 8 8 8 9 10 9 11 11 8 nan
nan 8 7 7 6 6 5 5 6 7 7 7 7 7 6 6 5 5 7 6 8 9 10 7 6 7 9 9 8 7 8 9 8 10 7 7 9 8 9 10 11 10 nan
nan 7 6 7 8 6 5 6 6 7 7 7 7 8 8 7 6 6 6 7 7 8 10 8 7 7 7 8 7 8 9 9 11 11 8 8 6 8 10 11 10 10 nan
nan 7 7 7 7 7 6 6 7 7 6 7 7 8 9 8 7 6 7 7 7 8 8 8 7 8 8 8 9 8 8 10 12 9 9 9 9 8 7 8 10 12 nan
nan 7 7 8 8 7 6 7 8 8 8 8 8 7 8 8 8 7 7 8 8 7 7 7 7 7 7 8 8 8 8 11 10 8 8 9 11 13 9 7 9 7 nan
nan 7 8 7 7 7 7 8 8 8 7 7 8 9 10 9 10 8 7 8 7 8 8 7 8 7 6 8 9 6 6 8 8 8 8 10 11 11 10 9 8 9 nan
nan 7 8 7 7 5 5 7 9 10 9 9 8 11 12 10 9 8 7 6 7 8 9 7 7 6 6 8 9 9 8 5 4 7 10 8 8 9 8 8 9 10 nan
nan 8 7 8 7 7 5 5 6 6 9 9 8 9 10 9 8 8 7 6 7 7 8 8 7 6 6 7 8 11 10 7 5 5 8 8 7 7 7 7 8 8 nan
nan 8 7 8 7 8 7 5 6 5 6 7 7 7 8 9 8 8 9 8 6 7 8 8 8 8 8 6 6 7 8 11 11 7 6 7 7 7 5 6 6 6 nan
nan 8 8 8 7 8 7 5 6 6 6 8 9 9 7 8 9 8 9 8 7 7 8 8 8 7 7 7 8 7 7 8 8 9 10 7 6 8 6 7 6 7 nan
nan nan nan nan nan nan nan nan nan nan nan nan nan nan nan nan nan nan nan nan nan nan nan nan nan nan nan nan nan nan nan nan nan nan nan nan nan nan nan nan nan nan nan